CST,Max TemperatureF,Mean TemperatureF,Min TemperatureF,Max Dew PointF,MeanDew PointF,Min DewpointF,Max Humidity, Mean Humidity, Min Humidity, Max Sea Level PressureIn, Mean Sea Level PressureIn, Min Sea Level PressureIn, Max VisibilityMiles, Mean VisibilityMiles, Min VisibilityMiles, Max Wind SpeedMPH, Mean Wind SpeedMPH, Max Gust SpeedMPH,PrecipitationIn, CloudCover, Events, WindDirDegrees
2013-1-1,19,5,-9,12,-2,-15,84,69,49,30.31,30.22,30.11,10,10,10,7,2,,0.00,4,,271
2013-1-2,21,12,3,14,8,0,85,74,63,30.10,30.05,29.98,10,10,7,7,2,,0.00,6,Snow,165
2013-1-3,21,16,10,18,10,3,93,74,62,30.28,30.20,30.08,10,9,4,10,4,16,0.00,4,Snow,288
2013-1-4,32,21,10,18,13,5,92,68,51,30.17,30.12,30.06,10,10,10,12,3,,0.00,0,,269
2013-1-5,33,20,8,23,13,3,93,77,56,30.17,29.99,29.87,10,10,7,12,2,18,0.00,0,,246
2013-1-6,24,17,10,16,12,5,80,72,58,30.25,30.16,29.98,10,10,10,15,6,23,0.00,3,,296
2013-1-7,35,25,15,25,19,10,93,70,55,30.16,30.01,29.96,10,10,7,13,6,23,0.00,0,,214
2013-1-8,35,24,12,28,20,10,93,84,70,30.03,29.94,29.83,10,8,1,10,2,20,0.00,3,,176
2013-1-9,37,28,19,28,22,16,93,72,48,30.41,30.22,29.93,10,10,10,15,7,24,0.00,0,,277
2013-1-10,37,28,19,32,23,18,100,79,52,30.42,30.17,29.78,10,9,2,10,4,,0.13,3,Rain,146
2013-1-11,46,39,32,43,35,32,100,94,81,29.77,29.59,29.45,10,3,0,13,3,22,0.00,7,Fog,157
2013-1-12,46,30,14,41,15,1,87,68,57,30.08,29.85,29.44,10,10,7,17,10,30,0.00,7,Snow,271
2013-1-13,14,11,8,3,2,0,73,67,57,30.27,30.12,30.02,10,10,5,15,8,18,0.00,6,,296
2013-1-14,21,13,5,10,6,0,92,74,58,30.42,30.37,30.27,10,10,10,10,3,16,0.00,3,Snow,289
2013-1-15,32,20,8,16,11,5,93,63,48,30.37,30.20,29.95,10,10,10,10,4,18,0.00,1,,218
2013-1-16,37,28,19,30,19,3,87,69,49,30.18,29.88,29.73,10,9,2,18,11,25,0.00,5,Rain-Snow,278
2013-1-17,23,18,12,10,4,-4,86,57,38,30.42,30.35,30.20,10,10,10,14,8,20,0.00,2,Snow,309
2013-1-18,46,32,17,32,23,10,86,71,53,30.35,29.96,29.76,10,10,2,13,6,20,0.00,2,Snow,201
2013-1-19,42,25,8,30,21,-4,93,71,45,30.17,29.83,29.69,10,10,5,33,7,46,0.00,2,,293
2013-1-20,14,10,5,1,-4,-6,73,58,41,30.38,30.29,30.16,10,10,5,17,11,24,0.00,3,Snow,303
2013-1-21,5,0,-4,-6,-13,-15,66,59,51,30.34,30.29,30.23,10,9,5,17,12,23,0.00,4,,301
2013-1-22,8,2,-5,-4,-10,-13,71,59,48,30.42,30.35,30.27,10,10,7,10,5,,0.00,2,,297
2013-1-23,19,10,0,10,1,-17,79,62,43,30.57,30.26,30.12,10,9,3,23,4,31,0.00,6,Snow,323
2013-1-24,15,6,-4,3,-7,-15,62,56,51,30.69,30.53,30.27,10,10,10,10,5,,0.00,1,,108
2013-1-25,24,17,8,14,7,1,86,66,50,30.29,30.09,29.96,10,9,2,21,8,25,0.00,5,Snow,288
2013-1-26,26,14,1,10,4,-2,85,63,46,30.39,30.30,30.21,10,10,10,10,4,17,0.00,2,,139
2013-1-27,32,29,26,32,23,10,100,77,47,30.21,30.01,29.81,10,6,2,12,6,,0.25,8,Snow,134
2013-1-28,32,32,32,32,32,30,100,99,93,29.94,29.85,29.66,10,4,2,12,2,,0.29,8,Rain-Thunderstorm,126
2013-1-29,37,34,32,36,31,28,100,92,81,29.65,29.59,29.51,10,7,1,10,6,21,0.05,8,Rain-Thunderstorm,325
2013-1-30,32,23,14,28,16,5,93,77,67,29.71,29.59,29.52,10,6,0,23,13,31,0.02,8,Snow,331
2013-1-31,14,7,0,9,-1,-9,79,68,62,30.24,29.96,29.71,10,7,2,21,12,29,0.00,6,Snow,301